^^
Garrymore Weather Station Historical Data
Daily Summary for September 25, 2020 Units:  English    Metric   Both
Daily Weekly Monthly Yearly Custom
  High: Low: Average:
Temperature: 39.2 °F 39.2 °F 39.2 °F
Dew Point: 37.4 °F 35.6 °F 36.5 °F
Humidity: 92% 84% 90%
Wind Speed: 6.2mph 1.2mph 3.4mph
Wind Gust: 9.9mph - -
Wind- - WNW
Pressure: 29.9 in 29.8 in -
Precipitation: 0 in    
Historical Graphs
 
 
Tabular Data for September 25, 2020
Time Temperature Dew Point Pressure Wind Wind Speed Wind Gust Humidity Rainfall Rate (Hourly) solar
00:00 39.2 °F 35.6 °F 29.8 in NW 3.1 mph 6.2 mph 84% 0 in 0 W/m2
00:05 39.2 °F 35.6 °F 29.8 in NW 3.1 mph 6.2 mph 84% 0 in 0 W/m2
00:10 39.2 °F 35.6 °F 29.8 in WNW 3.1 mph 6.2 mph 85% 0 in 0 W/m2
00:15 39.2 °F 35.6 °F 29.8 in NW 3.1 mph 6.2 mph 85% 0 in 0 W/m2
00:20 39.2 °F 35.6 °F 29.8 in NW 3.1 mph 6.2 mph 85% 0 in 0 W/m2
00:25 39.2 °F 35.6 °F 29.8 in WNW 3.1 mph 6.2 mph 85% 0 in 0 W/m2
00:30 39.2 °F 35.6 °F 29.8 in W 1.9 mph 6.2 mph 85% 0 in 0 W/m2
00:35 39.2 °F 35.6 °F 29.8 in W 3.1 mph 8.1 mph 85% 0 in 0 W/m2
00:40 39.2 °F 35.6 °F 29.8 in WNW 3.1 mph 8.1 mph 87% 0 in 0 W/m2
00:45 39.2 °F 35.6 °F 29.8 in NW 3.1 mph 6.2 mph 87% 0 in 0 W/m2
00:50 39.2 °F 35.6 °F 29.8 in WNW 3.1 mph 6.2 mph 87% 0 in 0 W/m2
00:55 39.2 °F 35.6 °F 29.8 in WNW 3.1 mph 6.2 mph 87% 0 in 0 W/m2
01:00 39.2 °F 35.6 °F 29.8 in WNW 3.1 mph 6.2 mph 87% 0 in 0 W/m2
01:05 39.2 °F 35.6 °F 29.8 in WNW 3.1 mph 6.2 mph 87% 0 in 0 W/m2
01:10 39.2 °F 35.6 °F 29.8 in WNW 3.1 mph 6.2 mph 88% 0 in 0 W/m2
01:15 39.2 °F 35.6 °F 29.8 in W 5 mph 8.1 mph 88% 0 in 0 W/m2
01:20 39.2 °F 35.6 °F 29.8 in WNW 3.1 mph 8.1 mph 89% 0 in 0 W/m2
01:25 39.2 °F 35.6 °F 29.8 in NW 3.1 mph 6.8 mph 88% 0 in 0 W/m2
01:30 39.2 °F 35.6 °F 29.8 in NW 3.1 mph 8.7 mph 89% 0 in 0 W/m2
01:35 39.2 °F 35.6 °F 29.8 in NW 3.1 mph 8.7 mph 89% 0 in 0 W/m2
01:40 39.2 °F 35.6 °F 29.8 in WNW 3.1 mph 8.1 mph 89% 0 in 0 W/m2
01:45 39.2 °F 35.6 °F 29.8 in WNW 5 mph 8.1 mph 89% 0 in 0 W/m2
01:50 39.2 °F 37.4 °F 29.8 in W 5 mph 8.1 mph 90% 0 in 0 W/m2
01:55 39.2 °F 37.4 °F 29.8 in WNW 3.1 mph 6.8 mph 90% 0 in 0 W/m2
02:00 39.2 °F 37.4 °F 29.8 in NW 1.9 mph 6.2 mph 90% 0 in 0 W/m2
02:05 39.2 °F 37.4 °F 29.8 in W 3.1 mph 6.8 mph 91% 0 in 0 W/m2
02:10 39.2 °F 37.4 °F 29.8 in W 1.9 mph 6.8 mph 91% 0 in 0 W/m2
02:15 39.2 °F 37.4 °F 29.8 in WNW 6.2 mph 6.8 mph 91% 0 in 0 W/m2
02:20 39.2 °F 37.4 °F 29.8 in NW 3.1 mph 6.8 mph 90% 0 in 0 W/m2
02:25 39.2 °F 37.4 °F 29.8 in WNW 3.1 mph 8.1 mph 90% 0 in 0 W/m2
02:30 39.2 °F 37.4 °F 29.9 in WNW 3.1 mph 8.1 mph 91% 0 in 0 W/m2
02:35 39.2 °F 37.4 °F 29.9 in NW 3.1 mph 6.2 mph 91% 0 in 0 W/m2
02:40 39.2 °F 37.4 °F 29.9 in WNW 3.1 mph 8.1 mph 91% 0 in 0 W/m2
02:45 39.2 °F 37.4 °F 29.9 in WNW 1.9 mph 8.1 mph 90% 0 in 0 W/m2
02:50 39.2 °F 37.4 °F 29.9 in W 3.1 mph 6.2 mph 90% 0 in 0 W/m2
02:55 39.2 °F 37.4 °F 29.9 in W 3.1 mph 6.2 mph 91% 0 in 0 W/m2
03:00 39.2 °F 37.4 °F 29.9 in NW 1.9 mph 8.1 mph 91% 0 in 0 W/m2
03:05 39.2 °F 37.4 °F 29.9 in WNW 3.1 mph 6.2 mph 91% 0 in 0 W/m2
03:10 39.2 °F 35.6 °F 29.9 in W 1.2 mph 6.2 mph 91% 0 in 0 W/m2
03:15 39.2 °F 35.6 °F 29.9 in WNW 1.2 mph 6.2 mph 91% 0 in 0 W/m2
03:20 39.2 °F 35.6 °F 29.9 in NW 1.9 mph 5 mph 91% 0 in 0 W/m2
03:25 39.2 °F 35.6 °F 29.9 in WSW 3.1 mph 6.2 mph 91% 0 in 0 W/m2
03:30 39.2 °F 35.6 °F 29.9 in WSW 3.1 mph 9.9 mph 91% 0 in 0 W/m2
03:35 39.2 °F 35.6 °F 29.9 in WSW 3.1 mph 8.1 mph 91% 0 in 0 W/m2
03:40 39.2 °F 35.6 °F 29.9 in W 5 mph 8.1 mph 91% 0 in 0 W/m2
03:45 39.2 °F 37.4 °F 29.9 in WNW 3.1 mph 9.9 mph 92% 0 in 0 W/m2
03:50 39.2 °F 37.4 °F 29.9 in W 3.1 mph 8.1 mph 92% 0 in 0 W/m2
03:55 39.2 °F 37.4 °F 29.9 in W 5 mph 8.7 mph 92% 0 in 0 W/m2
04:00 39.2 °F 37.4 °F 29.9 in WNW 6.2 mph 8.7 mph 91% 0 in 0 W/m2
04:05 39.2 °F 37.4 °F 29.9 in NW 3.1 mph 8.7 mph 91% 0 in 0 W/m2
04:10 39.2 °F 37.4 °F 29.9 in W 5 mph 8.1 mph 91% 0 in 0 W/m2
04:15 39.2 °F 37.4 °F 29.9 in W 5 mph 8.1 mph 91% 0 in 0 W/m2
04:20 39.2 °F 37.4 °F 29.9 in W 1.9 mph 8.1 mph 91% 0 in 0 W/m2
04:25 39.2 °F 37.4 °F 29.9 in WNW 5 mph 8.1 mph 91% 0 in 0 W/m2
04:30 39.2 °F 37.4 °F 29.9 in WNW 3.1 mph 8.1 mph 91% 0 in 0 W/m2
04:35 39.2 °F 37.4 °F 29.9 in NW 5 mph 6.2 mph 91% 0 in 0 W/m2
04:40 39.2 °F 37.4 °F 29.9 in WNW 3.1 mph 6.8 mph 92% 0 in 0 W/m2
04:45 39.2 °F 37.4 °F 29.9 in WNW 3.1 mph 6.8 mph 92% 0 in 0 W/m2
04:50 39.2 °F 37.4 °F 29.9 in WNW 3.1 mph 6.2 mph 92% 0 in 0 W/m2
04:55 39.2 °F 37.4 °F 29.9 in WNW 5 mph 6.8 mph 92% 0 in 0 W/m2
05:00 39.2 °F 37.4 °F 29.9 in WNW 5 mph 6.8 mph 92% 0 in 0 W/m2
05:05 39.2 °F 37.4 °F 29.9 in WNW 3.1 mph 6.2 mph 92% 0 in 0 W/m2
Garrymore Weather Station, Geashill, Tullamore, Offaly, Ireland
Compliments of Weather Underground - 2 mb